DH4SBM Weather Reports


Display with metric or nautical units.
time (UTC)temp
F
wind
direction
speed
MPH
gust
MPH
rain 1hr
in
rain 24hr
in
rain mn
in
humidity
%
barometer
mb
20260904215612 76 225 4.0 8.0 0.00 0.00 0.00 59 1015.7
20260904214614 76 248 3.0 7.0 0.00 0.00 0.00 58 1015.7
20260904213614 76 248 4.0 8.0 0.00 0.00 0.00 58 1015.6
20260904212613 76 225 5.0 9.0 0.00 0.00 0.00 58 1015.5
20260904211611 77 225 4.0 8.0 0.00 0.00 0.00 57 1015.4
20260904210611 77 225 3.0 8.0 0.00 0.00 0.00 56 1015.2
20260904205611 77 225 4.0 8.0 0.00 0.00 0.00 56 1015.1
20260904204613 78 225 4.0 8.0 0.00 0.00 0.00 56 1015.0
20260904203613 78 225 4.0 8.0 0.00 0.00 0.00 55 1015.0
20260904202612 78 225 5.0 11.0 0.00 0.00 0.00 55 1015.1
20260904201612 78 225 5.0 11.0 0.00 0.00 0.00 55 1014.9
20260904200612 79 225 6.0 10.0 0.00 0.00 0.00 54 1014.9
20260904195612 79 225 5.0 10.0 0.00 0.00 0.00 54 1014.8
20260904194612 80 225 5.0 9.0 0.00 0.00 0.00 54 1014.9
20260904193326 80 248 4.0 10.0 0.00 0.00 0.00 53 1014.8
20260904192325 81 248 5.0 12.0 0.00 0.00 0.00 52 1014.8
20260904191325 81 270 5.0 10.0 0.00 0.00 0.00 51 1014.6
20260904190323 82 270 6.0 13.0 0.00 0.00 0.00 51 1014.6
20260904185323 82 270 6.0 11.0 0.00 0.00 0.00 51 1014.5
20260904184325 83 270 7.0 13.0 0.00 0.00 0.00 50 1014.3
20260904183325 83 270 9.0 15.0 0.00 0.00 0.00 49 1014.3
20260904182324 83 270 9.0 15.0 0.00 0.00 0.00 49 1014.3
20260904181324 84 270 10.0 16.0 0.00 0.00 0.00 48 1014.2
20260904180324 84 270 11.0 21.0 0.00 0.00 0.00 48 1014.3
20260904175324 84 270 10.0 21.0 0.00 0.00 0.00 48 1014.2
20260904174324 85 270 11.0 19.0 0.00 0.00 0.00 47 1014.1
20260904173323 85 270 12.0 21.0 0.00 0.00 0.00 46 1014.1
20260904173039 85 270 12.0 21.0 0.00 0.00 0.00 46 1014.1
20260904172039 85 270 9.0 18.0 0.00 0.00 0.00 46 1014.0
20260904171039 86 270 11.0 20.0 0.00 0.00 0.00 45 1014.1
20260904170037 86 270 10.0 24.0 0.00 0.00 0.00 45 1014.0
20260904165039 86 270 11.0 21.0 0.00 0.00 0.00 45 1014.0
20260904164038 86 270 12.0 20.0 0.00 0.00 0.00 44 1013.9
20260904163038 87 270 14.0 24.0 0.00 0.00 0.00 44 1013.8
20260904162038 87 270 13.0 25.0 0.00 0.00 0.00 44 1013.9
20260904161038 87 270 12.0 23.0 0.00 0.00 0.00 44 1013.8
20260904160038 87 270 12.0 24.0 0.00 0.00 0.00 43 1013.8
20260904155752 87 292 10.0 24.0 0.00 0.00 0.00 43 1013.9
20260904154752 87 270 12.0 19.0 0.00 0.00 0.00 43 1013.9
20260904153752 87 292 12.0 21.0 0.00 0.00 0.00 42 1014.0
20260904152829 87 292 12.0 21.0 0.00 0.00 0.00 42 1014.0
20260904151829 87 292 13.0 21.0 0.00 0.00 0.00 42 1014.1
20260904150829 88 292 10.0 18.0 0.00 0.00 0.00 42 1014.0
20260904145828 87 292 11.0 20.0 0.00 0.00 0.00 42 1014.0
20260904144828 88 292 11.0 23.0 0.00 0.00 0.00 42 1014.1
20260904143828 88 292 9.0 16.0 0.00 0.00 0.00 42 1014.1
20260904142830 88 292 10.0 18.0 0.00 0.00 0.00 42 1014.3
20260904141830 88 270 8.0 17.0 0.00 0.00 0.00 41 1014.4
20260904140830 88 270 9.0 16.0 0.00 0.00 0.00 42 1014.5
20260904135829 88 270 10.0 15.0 0.00 0.00 0.00 42 1014.6
20260904134829 87 270 7.0 13.0 0.00 0.00 0.00 44 1014.7
20260904133829 87 292 7.0 15.0 0.00 0.00 0.00 45 1014.7
20260904132829 87 270 8.0 14.0 0.00 0.00 0.00 44 1015.0
20260904131829 87 270 5.0 13.0 0.00 0.00 0.00 45 1015.0
20260904130828 87 270 8.0 15.0 0.00 0.00 0.00 45 1015.1
20260904125828 87 248 7.0 17.0 0.00 0.00 0.00 46 1015.3
20260904124828 86 270 9.0 16.0 0.00 0.00 0.00 46 1015.5
20260904123828 86 270 8.0 15.0 0.00 0.00 0.00 46 1015.6
20260904122828 86 248 7.0 15.0 0.00 0.00 0.00 47 1015.8
20260904121830 85 270 7.0 14.0 0.00 0.00 0.00 47 1016.1
20260904120829 85 270 9.0 15.0 0.00 0.00 0.00 48 1016.3
20260904115829 85 248 6.0 13.0 0.00 0.00 0.00 48 1016.3
20260904114829 84 225 9.0 21.0 0.00 0.00 0.00 49 1016.6
20260904113829 84 225 8.0 18.0 0.00 0.00 0.00 50 1016.5
20260904112829 84 248 7.0 19.0 0.00 0.00 0.00 50 1016.7
20260904111829 83 248 9.0 18.0 0.00 0.00 0.00 51 1016.9
20260904110828 83 225 8.0 19.0 0.00 0.00 0.00 51 1017.1
20260904105828 82 248 9.0 16.0 0.00 0.00 0.00 53 1017.2
20260904104828 81 248 10.0 19.0 0.00 0.00 0.00 53 1017.2
20260904103828 81 248 10.0 20.0 0.00 0.00 0.00 53 1017.4
20260904102830 81 225 7.0 18.0 0.00 0.00 0.00 54 1017.4
20260904101829 80 225 7.0 16.0 0.00 0.00 0.00 54 1017.7
20260904100829 80 248 8.0 14.0 0.00 0.00 0.00 55 1017.7
20260904095829 80 248 8.0 17.0 0.00 0.00 0.00 55 1018.0
20260904094829 80 248 8.0 16.0 0.00 0.00 0.00 55 1017.9
20260904093829 80 225 8.0 16.0 0.00 0.00 0.00 56 1018.2
20260904092829 79 248 7.0 15.0 0.00 0.00 0.00 56 1018.3
20260904091829 78 248 7.0 16.0 0.00 0.00 0.00 58 1018.5
20260904090828 78 248 7.0 16.0 0.00 0.00 0.00 58 1018.7
20260904085828 78 225 7.0 14.0 0.00 0.00 0.00 58 1018.9
20260904084828 78 202 6.0 13.0 0.00 0.00 0.00 58 1019.1
20260904083828 77 202 6.0 15.0 0.00 0.00 0.00 59 1019.1
20260904082828 77 202 5.0 11.0 0.00 0.00 0.00 59 1019.1
20260904081830 76 202 5.0 11.0 0.00 0.00 0.00 60 1019.0
20260904080829 75 202 5.0 14.0 0.00 0.00 0.00 61 1019.0
20260904075829 74 225 6.0 14.0 0.00 0.00 0.00 62 1019.2
20260904074829 74 225 6.0 12.0 0.00 0.00 0.00 62 1019.2
20260904073829 73 225 7.0 18.0 0.00 0.00 0.00 63 1019.3
20260904072829 73 225 6.0 12.0 0.00 0.00 0.00 63 1019.4
20260904071829 72 225 6.0 13.0 0.00 0.00 0.00 65 1019.5
20260904070828 71 225 7.0 17.0 0.00 0.00 0.00 65 1019.6
20260904065828 71 225 5.0 12.0 0.00 0.00 0.00 66 1019.6
20260904064828 70 225 4.0 9.0 0.00 0.00 0.00 67 1019.6
20260904063828 70 202 3.0 6.0 0.00 0.00 0.00 68 1019.6
20260904062830 69 180 0.0 3.0 0.00 0.00 0.00 70 1019.7
20260904061829 68 0 0.0 0.0 0.00 0.00 0.00 71 1019.8
20260904060829 68 0 0.0 0.0 0.00 0.00 0.00 72 1019.8
20260904055829 67 0 0.0 0.0 0.00 0.00 0.00 72 1019.8
20260904054829 67 0 0.0 0.0 0.00 0.00 0.00 72 1019.7
20260904053829 66 0 0.0 0.0 0.00 0.00 0.00 71 1019.8
20260904052829 66 180 1.0 2.0 0.00 0.00 0.00 71 1019.8
20260904051828 66 180 1.0 3.0 0.00 0.00 0.00 71 1019.7
20260904050828 66 180 1.0 3.0 0.00 0.00 0.00 70 1019.6
20260904045828 66 180 1.0 3.0 0.00 0.00 0.00 70 1019.6
20260904044828 66 180 1.0 3.0 0.00 0.00 0.00 70 1019.7
20260904043828 67 180 2.0 4.0 0.00 0.00 0.00 69 1019.6
20260904042830 67 180 2.0 4.0 0.00 0.00 0.00 69 1019.7
20260904041829 67 180 2.0 5.0 0.00 0.00 0.00 69 1019.7
20260904040829 67 180 2.0 3.0 0.00 0.00 0.00 69 1019.8
20260904035828 67 180 2.0 5.0 0.00 0.00 0.00 68 1019.9
20260904034828 68 180 3.0 6.0 0.00 0.00 0.00 68 1020.0
20260904033828 68 180 2.0 5.0 0.00 0.00 0.00 68 1020.1
20260904032830 68 180 3.0 6.0 0.00 0.00 0.00 68 1020.0
20260904031829 67 180 4.0 7.0 0.00 0.00 0.00 68 1020.2
20260904030829 67 180 3.0 5.0 0.00 0.00 0.00 69 1020.2
20260904025829 67 180 2.0 4.0 0.00 0.00 0.00 69 1020.3
20260904024829 67 180 2.0 4.0 0.00 0.00 0.00 69 1020.4
20260904023829 67 158 1.0 5.0 0.00 0.00 0.00 69 1020.6
20260904022829 67 180 2.0 4.0 0.00 0.00 0.00 68 1020.7
20260904021828 67 202 2.0 6.0 0.00 0.00 0.00 69 1020.7
20260904020828 67 180 1.0 3.0 0.00 0.00 0.00 69 1020.8
20260904015828 67 180 2.0 3.0 0.00 0.00 0.00 69 1020.7
20260904014828 67 180 2.0 5.0 0.00 0.00 0.00 69 1020.7
20260904013830 67 180 3.0 7.0 0.00 0.00 0.00 68 1020.7
20260904012830 67 180 2.0 5.0 0.00 0.00 0.00 68 1020.8
20260904011829 67 180 2.0 3.0 0.00 0.00 0.00 68 1020.8
20260904010829 68 180 2.0 4.0 0.00 0.00 0.00 67 1020.7
20260904005827 68 135 1.0 3.0 0.00 0.00 0.00 67 1020.8
20260904004827 68 158 2.0 4.0 0.00 0.00 0.00 67 1020.9
20260904003829 68 180 2.0 4.0 0.00 0.00 0.00 65 1021.0
20260904002829 69 180 2.0 5.0 0.00 0.00 0.00 65 1021.0
20260904001828 69 202 3.0 6.0 0.00 0.00 0.00 65 1021.2
20260904000828 69 225 2.0 5.0 0.00 0.00 0.00 65 1021.3
20260903235828 69 202 2.0 5.0 0.00 0.00 0.00 64 1021.3
20260903234828 69 202 2.0 4.0 0.00 0.00 0.00 64 1021.5
20260903233828 69 202 2.0 3.0 0.00 0.00 0.00 64 1021.5
20260903233544 69 202 2.0 3.0 0.00 0.00 0.00 64 1021.5
20260903232544 69 202 3.0 4.0 0.00 0.00 0.00 64 1021.5
20260903231543 69 202 2.0 4.0 0.00 0.00 0.00 63 1021.5
20260903230543 69 225 2.0 4.0 0.00 0.00 0.00 63 1021.6
20260903225543 69 225 3.0 5.0 0.00 0.00 0.00 63 1021.6
20260903224543 69 225 4.0 6.0 0.00 0.00 0.00 63 1021.6
20260903223545 70 202 4.0 6.0 0.00 0.00 0.00 62 1021.5
20260903222544 70 225 4.0 7.0 0.00 0.00 0.00 62 1021.5
20260903221544 70 180 2.0 5.0 0.00 0.00 0.00 62 1021.5
20260903220544 70 202 2.0 5.0 0.00 0.00 0.00 61 1021.6